sat.trackr.live / text

‹ back to catalog

STARLINK-33764

NORAD 63510 · 2025-071T

PAYLOAD ACTIVE UNKNOWN

§ Identity

Operator
Country
US
Launch date
2025-04-07
Launch site
AFWTR
Launch vehicle
Mass (kg)
RCS (m²)

Purposes: comms

External: N2YO · Heavens-Above · Gunter

§ Orbital elements

Epoch: 2026-05-25T00:51:52.882272Z

Period
94.11 min
Inclination
53.1563°
Eccentricity
0.0001412
Mean motion
15.30204316 rev/d
Perigee alt
474.2 km
Apogee alt
476.2 km
Semi-major
6,853.3 km
B*
4.3251e-4
RAAN
145.6334°
Arg perigee
92.7334°
Mean anomaly
267.3828°
Rev number
6,443

§ Raw data

STARLINK-337641 63510U 25071T   26145.03602873  .00012474  00000+0  43251-3 0  99922 63510  53.1563 145.6334 0001412  92.7334 267.3828 15.30204316 64430

JSON: /api/v1/satellites/63510 · /tle

For live sub-satellite position, see the globe view (requires WebGL).

§ Visibility from observer

Set your observer location to see the next 7 days of passes ≥ 10°. The values pass through the URL so the page stays shareable.

No JS? Fill the form by hand. The geolocation button needs JavaScript.